Starlink 30442

operational
NORAD ID: 57868 Int'l Des: 2023-144 Owner: SPXS Country: US Constellation: starlink
LEOCIRCULAR

About Starlink 30442

Description loading...

Live Position

Loading 3D Globe...

Upcoming Passes

Altitude History

Altitude vs Time

uPlot chart will show altitude changes over time

Two-Line Element Set

1 57868U 23144E 25352.09804083 -.00000615 00000-0 -30458-4 0 9995
2 57868 43.0046 11.0837 0000954 279.3975 80.6759 15.02534786125298
Epoch: Dec 18, 2025 • Age: 16 hours

Current Status

Altitude 571.0 km
Velocity 7.58 km/s
Sub-Earth Point -41.30°S, 59.25°W
Launch Date Sep 16, 2023
Age 2.2 years
Type internet

Technical Details

Classification Payload
Mass 730.00 kg
Dry Mass 700.00 kg
Total Mass 730.00 kg
Length 0.30 m
Diameter 4.10 m
Span 29.00 m
Shape Box + pan
Manufacturer SPXS
Bus Type Starlink V2M
Phase Status In Orbit
Owner/State SPXS/US

Large Constellations

Loading constellations...